Location: Austin
(30.3000°N, 97.7500°W)
Time: 11:18:35
(UTC-05:00)

ATLAS CENTAUR R/B - Pass Details

Date: 05 September 2024
Orbit: 197 x 1833 km, 57.1° (Epoch: 11 September)

Event Time Altitude Azimuth Distance (km) Brightness Sun altitude
Rises 20:31:34 0° 341° (NNW) 3,096 6.1 -10.1°
Reaches altitude 10° 20:34:11 10° 359° (N) 2,446 5.3 -10.6°
Maximum altitude 20:38:37 21° 48° (NE) 2,163 4.5 -11.5°
Enters shadow 20:43:04 14° 86° (E) 2,994 4.9 -12.5°
